This is the latest recevied weather packets stored in our database for station/object KJ7HSW. If no packets are shown the sender has not sent any weather packets the latest 10 day(s).
| Time | Temp. | Humidity | Pressure | Rain* | Wind** | Luminosity | Snow |
|---|---|---|---|---|---|---|---|
| 1778112113 | 12.78° C | 88% | 1019.6 hPa | 0 mm | - | 96 W/m² | - |
| 1778111810 | 12.78° C | 88% | 1019.7 hPa | 0 mm | - | 99 W/m² | - |
| 1778111505 | 12.78° C | 88% | 1019.5 hPa | 0 mm | - | 75 W/m² | - |
| 1778111203 | 12.78° C | 88% | 1019.7 hPa | 0 mm | - | 58 W/m² | - |
| 1778110900 | 12.78° C | 88% | 1019.5 hPa | 0 mm | - | 64 W/m² | - |
| 1778110597 | 12.78° C | 88% | 1019.7 hPa | 0 mm | - | 71 W/m² | - |
| 1778110294 | 12.78° C | 88% | 1019.4 hPa | 0 mm | - | 86 W/m² | - |
| 1778109990 | 12.78° C | 88% | 1019.6 hPa | 0 mm | - | 120 W/m² | - |
| 1778109686 | 12.78° C | 88% | 1019.8 hPa | 0 mm | - | 97 W/m² | - |
| 1778109383 | 12.78° C | 89% | 1019.7 hPa | 0 mm | - | 129 W/m² | - |
| 1778109082 | 12.22° C | 90% | 1019.7 hPa | 0 mm | - | 103 W/m² | - |
| 1778108778 | 12.22° C | 89% | 1019.8 hPa | 0 mm | - | 67 W/m² | - |
| 1778108475 | 12.22° C | 90% | 1019.7 hPa | 0 mm | - | 69 W/m² | - |
| 1778108171 | 12.22° C | 90% | 1019.6 hPa | 0 mm | - | 53 W/m² | - |
| 1778107868 | 12.22° C | 90% | 1019.8 hPa | 0 mm | - | 51 W/m² | - |
| 1778107565 | 12.22° C | 90% | 1019.8 hPa | 0 mm | - | 51 W/m² | - |
| 1778107261 | 12.22° C | 90% | 1019.9 hPa | 0 mm | - | 55 W/m² | - |
| 1778106957 | 12.22° C | 90% | 1019.8 hPa | 0 mm | - | 53 W/m² | - |
| 1778106654 | 12.22° C | 90% | 1019.8 hPa | 0 mm | - | 55 W/m² | - |
| 1778106351 | 12.22° C | 91% | 1019.9 hPa | 0 mm | - | 57 W/m² | - |
| 1778106047 | 12.22° C | 91% | 1019.7 hPa | 0 mm | - | 63 W/m² | - |
| 1778105745 | 12.22° C | 90% | 1019.9 hPa | 0 mm | - | 62 W/m² | - |
| 1778105443 | 12.22° C | 90% | 1020 hPa | 0 mm | - | 76 W/m² | - |
| 1778105138 | 12.22° C | 90% | 1019.7 hPa | 0 mm | - | 74 W/m² | - |
| 1778104834 | 12.22° C | 89% | 1019.9 hPa | 0 mm | - | 75 W/m² | - |
* Rain latest hour (hover to see other rain measurements)
** Current wind speed in m/s (hover to see current wind gust speed)